Tracking 30743 objects as of 21-Jun-2025
HD Live streaming from Space Station
objects crossing your sky now

FENGYUN 1C DEB

Track FENGYUN 1C DEB now!
10-day predictions


NORAD ID: 31844
Int'l Code: 1999-025CJJ
Perigee: 760.5 km
Apogee: 911.5 km
Inclination: 100.3 °
Period: 101.5 minutes
Semi major axis: 7207 km
RCS: 0.0099 m2 (small)
Launch date: May 10, 1999
Source: People's Republic of China (PRC)
Launch site: Taiyaun Space Center, China (TSC)

Note: This is SATELLITE DEBRIS
Your satellite tracking list
Your tracking list is empty




NASA's NSSDC Master Catalog

Two Line Element Set (TLE):
1 31844U 99025CJJ 25171.34283080  .00001270  00000-0  60190-3 0  9998
2 31844 100.2841 131.8666 0104790 109.4603 251.7925 14.18960105928446
Source of the keplerian elements: AFSPC